When you browse on this site, cookies collect data to enhance your experience and personalize the content and advertising you see.
Visit our Privacy Policy to learn more. By continuing to use the site, you agree to this use of cookies and data.
  • In Spain
  • List of Countries
  • For 7 days
  • Water Temperature
  • Satellite Maps
  • Weather Map
  • Weather Widgets
  • user-avatar
    Login

    Hourly Weather Oran

    Today, 17 December, Monday

    Time Temperature Precipitation Wind Pressure Humidity
    00:00 +15°C° 0 mm 6 mps 759 mmHg 63%
    01:00 +15°C° 0 mm 6 mps 759 mmHg 66%
    02:00 +14°C° 0 mm 5 mps 759 mmHg 70%
    03:00 +14°C° 0 mm 5 mps 759 mmHg 73%
    04:00 +14°C° 0 mm 4 mps 759 mmHg 76%
    05:00 +14°C° 0 mm 4 mps 759 mmHg 79%
    06:00 +13°C° 0 mm 3 mps 760 mmHg 83%
    07:00 +14°C° 0 mm 3 mps 760 mmHg 82%
    08:00 +16°C° 0 mm 3 mps 760 mmHg 80%
    09:00 +17°C° 0 mm 2 mps 761 mmHg 79%
    10:00 +17°C° 0 mm 2 mps 761 mmHg 76%
    11:00 +18°C° 0 mm 2 mps 761 mmHg 72%
    12:00 +18°C° 0 mm 3 mps 761 mmHg 69%
    13:00 +19°C° 0 mm 3 mps 760 mmHg 66%
    14:00 +19°C° 0 mm 3 mps 760 mmHg 62%
    15:00 +19°C° 0 mm 3 mps 760 mmHg 59%
    16:00 +18°C° 0 mm 3 mps 760 mmHg 63%
    17:00 +17°C° 0 mm 3 mps 760 mmHg 67%
    18:00 +15°C° 0 mm 4 mps 760 mmHg 71%
    19:00 +15°C° 0 mm 4 mps 760 mmHg 73%
    20:00 +16°C° 0 mm 3 mps 760 mmHg 74%
    21:00 +14°C° 0 mm 3 mps 760 mmHg 76%
    22:00 +14°C° 0 mm 3 mps 760 mmHg 75%
    23:00 +14°C° 0 mm 3 mps 760 mmHg 75%

    Tomorrow, 18 December, Tuesday

    Time Temperature Precipitation Wind Pressure Humidity
    00:00 +14°C° 0 mm 3 mps 760 mmHg 75%
    01:00 +13°C° 0 mm 3 mps 760 mmHg 73%
    02:00 +13°C° 0 mm 3 mps 759 mmHg 72%
    03:00 +13°C° 0 mm 3 mps 759 mmHg 70%
    04:00 +13°C° 0 mm 3 mps 759 mmHg 68%
    05:00 +13°C° 0 mm 3 mps 758 mmHg 66%
    06:00 +13°C° 0 mm 3 mps 758 mmHg 64%
    07:00 +15°C° 0 mm 2 mps 758 mmHg 59%
    08:00 +16°C° 0 mm 2 mps 758 mmHg 54%
    09:00 +17°C° 0 mm 2 mps 758 mmHg 48%
    10:00 +19°C° 0 mm 2 mps 758 mmHg 43%
    11:00 +20°C° 0 mm 2 mps 758 mmHg 37%
    12:00 +23°C° 0 mm 1 mps 758 mmHg 32%
    13:00 +23°C° 0 mm 1 mps 757 mmHg 33%
    14:00 +23°C° 0 mm 1 mps 757 mmHg 34%
    15:00 +23°C° 0 mm 1 mps 756 mmHg 35%
    16:00 +21°C° 0 mm 1 mps 756 mmHg 43%
    17:00 +19°C° 0 mm 1 mps 756 mmHg 50%
    18:00 +16°C° 0 mm 1 mps 756 mmHg 58%
    19:00 +16°C° 0 mm 2 mps 756 mmHg 60%
    20:00 +16°C° 0 mm 2 mps 757 mmHg 62%
    21:00 +15°C° 0 mm 2 mps 757 mmHg 64%
    22:00 +15°C° 0 mm 2 mps 757 mmHg 64%
    23:00 +15°C° 0 mm 2 mps 757 mmHg 64%

    Day after tomorrow, 19 December, Wednesday

    Time Temperature Precipitation Wind Pressure Humidity
    00:00 +14°C° 0 mm 3 mps 757 mmHg 63%
    01:00 +13°C° 0 mm 3 mps 757 mmHg 63%
    02:00 +13°C° 0 mm 3 mps 757 mmHg 62%
    03:00 +13°C° 0 mm 3 mps 756 mmHg 61%
    04:00 +13°C° 0 mm 3 mps 756 mmHg 62%
    05:00 +13°C° 0 mm 3 mps 756 mmHg 62%
    06:00 +13°C° 0 mm 3 mps 756 mmHg 63%
    07:00 +14°C° 0 mm 3 mps 757 mmHg 60%
    08:00 +16°C° 0 mm 3 mps 757 mmHg 56%
    09:00 +17°C° 0 mm 3 mps 757 mmHg 53%
    10:00 +18°C° 0 mm 4 mps 757 mmHg 49%
    11:00 +19°C° 0 mm 4 mps 757 mmHg 45%
    12:00 +20°C° 0 mm 4 mps 757 mmHg 41%
    13:00 +20°C° 0 mm 4 mps 757 mmHg 42%
    14:00 +21°C° 0 mm 5 mps 756 mmHg 43%
    15:00 +21°C° 0 mm 5 mps 756 mmHg 44%
    16:00 +19°C° 0 mm 4 mps 756 mmHg 50%
    17:00 +18°C° 0 mm 4 mps 757 mmHg 56%
    18:00 +16°C° 0 mm 3 mps 757 mmHg 63%
    19:00 +16°C° 0 mm 3 mps 757 mmHg 65%
    20:00 +16°C° 0 mm 3 mps 758 mmHg 68%
    21:00 +16°C° 0 mm 3 mps 758 mmHg 71%
    22:00 +14°C° 0 mm 3 mps 759 mmHg 73%
    23:00 +14°C° 0 mm 3 mps 759 mmHg 76%

    20 December, Thursday

    Time Temperature Precipitation Wind Pressure Humidity
    00:00 +13°C° 0 mm 3 mps 759 mmHg 78%
    01:00 +13°C° 0 mm 3 mps 759 mmHg 77%
    02:00 +13°C° 0 mm 3 mps 759 mmHg 77%
    03:00 +12°C° 0 mm 3 mps 759 mmHg 77%
    04:00 +12°C° 0 mm 3 mps 759 mmHg 77%
    05:00 +13°C° 0 mm 2 mps 759 mmHg 78%
    06:00 +12°C° 0 mm 2 mps 759 mmHg 78%
    07:00 +14°C° 0 mm 2 mps 759 mmHg 72%
    08:00 +15°C° 0 mm 2 mps 760 mmHg 65%
    09:00 +16°C° 0 mm 2 mps 760 mmHg 58%
    10:00 +17°C° 0 mm 2 mps 760 mmHg 53%
    11:00 +18°C° 0 mm 2 mps 760 mmHg 48%
    12:00 +19°C° 0 mm 2 mps 760 mmHg 43%
    13:00 +19°C° 0 mm 2 mps 759 mmHg 44%
    14:00 +19°C° 0 mm 3 mps 759 mmHg 45%
    15:00 +19°C° 0 mm 3 mps 759 mmHg 45%
    16:00 +18°C° 0 mm 2 mps 759 mmHg 52%
    17:00 +16°C° 0 mm 2 mps 759 mmHg 58%
    18:00 +15°C° 0 mm 2 mps 760 mmHg 64%
    19:00 +15°C° 0 mm 1 mps 760 mmHg 67%
    20:00 +14°C° 0 mm 1 mps 761 mmHg 70%
    21:00 +14°C° 0 mm 1 mps 761 mmHg 74%
    22:00 +13°C° 0 mm 1 mps 761 mmHg 75%
    23:00 +13°C° 0 mm 1 mps 761 mmHg 76%

    21 December, Friday

    Time Temperature Precipitation Wind Pressure Humidity
    00:00 +13°C° 0 mm 1 mps 761 mmHg 76%
    01:00 +12°C° 0 mm 1 mps 761 mmHg 78%
    02:00 +12°C° 0 mm 1 mps 761 mmHg 80%
    03:00 +12°C° 0 mm 1 mps 761 mmHg 81%
    04:00 +11°C° 0 mm 1 mps 761 mmHg 82%
    05:00 +11°C° 0 mm 1 mps 761 mmHg 83%
    06:00 +11°C° 0 mm 1 mps 761 mmHg 83%
    07:00 +12°C° 0 mm 1 mps 762 mmHg 75%
    08:00 +14°C° 0 mm 1 mps 762 mmHg 68%
    09:00 +15°C° 0 mm 1 mps 763 mmHg 60%
    10:00 +16°C° 0 mm 1 mps 763 mmHg 54%
    11:00 +18°C° 0 mm 1 mps 762 mmHg 49%
    12:00 +17°C° 0 mm 0 mps 762 mmHg 43%
    13:00 +20°C° 0 mm 1 mps 762 mmHg 42%
    14:00 +20°C° 0 mm 1 mps 762 mmHg 40%
    15:00 +20°C° 0 mm 1 mps 761 mmHg 39%
    16:00 +18°C° 0 mm 2 mps 761 mmHg 46%
    17:00 +16°C° 0 mm 2 mps 762 mmHg 53%
    18:00 +15°C° 0 mm 2 mps 762 mmHg 60%
    19:00 +15°C° 0 mm 2 mps 762 mmHg 61%
    20:00 +14°C° 0 mm 2 mps 762 mmHg 62%
    21:00 +14°C° 0 mm 2 mps 763 mmHg 63%
    22:00 +13°C° 0 mm 1 mps 762 mmHg 61%
    23:00 +13°C° 0 mm 1 mps 762 mmHg 60%

    22 December, Saturday

    Time Temperature Precipitation Wind Pressure Humidity
    00:00 +13°C° 0 mm 1 mps 762 mmHg 58%
    01:00 +13°C° 0 mm 1 mps 762 mmHg 57%
    02:00 +12°C° 0 mm 1 mps 761 mmHg 56%
    03:00 +12°C° 0 mm 1 mps 761 mmHg 54%
    04:00 +12°C° 0 mm 1 mps 761 mmHg 53%
    05:00 +12°C° 0 mm 1 mps 761 mmHg 52%
    06:00 +12°C° 0 mm 2 mps 761 mmHg 51%
    07:00 +14°C° 0 mm 2 mps 762 mmHg 47%
    08:00 +15°C° 0 mm 2 mps 762 mmHg 43%
    09:00 +17°C° 0 mm 2 mps 762 mmHg 39%
    10:00 +18°C° 0 mm 2 mps 762 mmHg 35%
    11:00 +21°C° 0 mm 1 mps 762 mmHg 31%
    12:00 +22°C° 0 mm 1 mps 761 mmHg 27%
    13:00 +22°C° 0 mm 1 mps 761 mmHg 27%
    14:00 +23°C° 0 mm 2 mps 761 mmHg 26%
    15:00 +23°C° 0 mm 2 mps 760 mmHg 26%
    16:00 +20°C° 0 mm 2 mps 760 mmHg 31%
    17:00 +19°C° 0 mm 2 mps 760 mmHg 35%
    18:00 +17°C° 0 mm 3 mps 760 mmHg 40%
    19:00 +16°C° 0 mm 3 mps 761 mmHg 41%
    20:00 +16°C° 0 mm 2 mps 761 mmHg 41%
    21:00 +16°C° 0 mm 2 mps 761 mmHg 41%
    22:00 +15°C° 0 mm 2 mps 761 mmHg 41%
    23:00 +15°C° 0 mm 2 mps 761 mmHg 40%
    Show more